TimeCDT,TemperatureF,Dew PointF,Humidity,Sea Level PressureIn,VisibilityMPH,Wind Direction,Wind SpeedMPH,Gust SpeedMPH,PrecipitationIn,Events,Conditions,WindDirDegrees,DateUTC
12:54 AM,25.0,16.0,69,30.44,10.0,ESE,4.6,-,N/A,,Clear,120,2013-04-21 05:54:00
1:54 AM,24.1,16.0,71,30.45,10.0,SE,3.5,-,N/A,,Clear,130,2013-04-21 06:54:00
2:54 AM,23.0,16.0,74,30.45,10.0,Calm,Calm,-,N/A,,Clear,0,2013-04-21 07:54:00
3:54 AM,21.0,17.1,85,30.46,10.0,South,3.5,-,N/A,,Clear,170,2013-04-21 08:54:00
4:54 AM,21.0,17.1,85,30.47,10.0,Calm,Calm,-,N/A,,Clear,0,2013-04-21 09:54:00
5:54 AM,21.0,18.0,88,30.49,10.0,SSE,4.6,-,N/A,,Clear,150,2013-04-21 10:54:00
6:54 AM,24.1,21.0,88,30.50,10.0,SSE,5.8,-,N/A,,Clear,150,2013-04-21 11:54:00
7:54 AM,27.0,23.0,85,30.51,10.0,SE,6.9,-,N/A,,Mostly Cloudy,140,2013-04-21 12:54:00
8:54 AM,32.0,24.1,73,30.51,10.0,SSE,9.2,-,N/A,,Mostly Cloudy,150,2013-04-21 13:54:00
9:54 AM,36.0,23.0,59,30.49,10.0,SSE,15.0,21.9,N/A,,Mostly Cloudy,160,2013-04-21 14:54:00
10:54 AM,39.9,23.0,51,30.48,10.0,South,13.8,21.9,N/A,,Overcast,180,2013-04-21 15:54:00
11:54 AM,41.0,21.9,47,30.45,10.0,SSE,18.4,27.6,N/A,,Overcast,160,2013-04-21 16:54:00
12:54 PM,42.1,23.0,47,30.42,10.0,SSE,21.9,26.5,N/A,,Overcast,160,2013-04-21 17:54:00
1:54 PM,42.1,24.1,49,30.40,10.0,SSE,13.8,26.5,N/A,,Overcast,160,2013-04-21 18:54:00
2:54 PM,39.9,21.9,49,30.38,10.0,SSE,16.1,26.5,N/A,,Overcast,150,2013-04-21 19:54:00
3:54 PM,39.9,21.9,49,30.36,10.0,SSE,18.4,-,N/A,,Overcast,160,2013-04-21 20:54:00
4:54 PM,39.0,23.0,53,30.35,10.0,SSE,17.3,24.2,N/A,,Overcast,150,2013-04-21 21:54:00
5:54 PM,36.0,25.0,64,30.35,10.0,SSE,10.4,26.5,N/A,,Overcast,160,2013-04-21 22:54:00
6:54 PM,34.0,21.9,61,30.32,10.0,SSE,17.3,27.6,N/A,,Overcast,150,2013-04-21 23:54:00
7:54 PM,34.0,23.0,64,30.29,10.0,SSE,12.7,-,N/A,,Mostly Cloudy,150,2013-04-22 00:54:00
8:54 PM,33.1,25.0,72,30.28,10.0,SE,11.5,-,N/A,,Scattered Clouds,140,2013-04-22 01:54:00
9:54 PM,33.1,26.1,75,30.28,10.0,SSE,10.4,-,N/A,,Partly Cloudy,150,2013-04-22 02:54:00
10:54 PM,34.0,26.1,73,30.25,10.0,SSE,9.2,-,N/A,,Overcast,150,2013-04-22 03:54:00
11:54 PM,35.1,27.0,72,30.23,10.0,South,9.2,-,0.00,,Overcast,170,2013-04-22 04:54:00